Powrót do katalogu

ATLAS 5 CENTAUR DEB

AktywnyHEO
NORAD 46846·DEBRIS·🇺🇸 United States

Wystrzelony Oct 17, 2018 z Cape Canaveral Space Force Station

Loading…

Następne Przeloty (najbliższe 24 godziny)

TLE

ŚwieżeSource: Space-Track

Epoka: Sep 13, 2026, 22:25 UTC

1 46846U 18079DB  26256.93428631 -.00000156  00000-0  00000-0 0  9993
2 46846  12.5026  55.8430 4564519 278.4773  34.0347  1.71814452 36826

Śledź ATLAS 5 CENTAUR DEB w czasie rzeczywistym z AllMySat

Download on the App Store